Tracking 20945 objects as of 9-Jul-2020
HD Live streaming from Space Station
objects crossing your sky now

ARIANE 2 DEB

Track ARIANE 2 DEB now!


NORAD ID: 27649
Int'l Code: 1989-006AD
Perigee: 1,051.6 km
Apogee: 35,700.0 km
Inclination: 7.8 °
Period: 645.7 minutes
Semi major axis: 24746 km
RCS: 0.4685 m2 (medium)
Launch date: January 27, 1989
Source: France (FR)
Launch site: FRENCH GUIANA (FRGUI)

Note: This is SATELLITE DEBRIS
aabbcc
Your satellite tracking list
Your tracking list is empty




NASA's NSSDC Master Catalog

Two Line Element Set (TLE):
1 27649U 89006AD  20190.74000674 -.00000114 +00000-0 +00000-0 0  9998
2 27649 007.7895 217.5956 7000583 201.4602 175.7187 02.23009843057435
Source of the keplerian elements: AFSPC